Regional Weather Roundup
Issued by NWS Sioux Falls, SD

Home | Current Version | Previous Version | Text Only | Print | Product List | Glossary On
Versions: 1 2 3 4 5 6 7 8 9 10 11 12 13 14 15 16 17 18 19 20 21 22 23 24 25 26 27 28 29 30 31 32 33 34 35 36 37 38 39 40 41 42 43 44 45 46 47 48 49 50
000
ASUS43 KFSD 291702
RWRFSD

WEATHER ROUNDUP FOR SE SOUTH DAKOTA/SW MINNESOTA/NW IOWA
NATIONAL WEATHER SERVICE SIOUX FALLS SD
1200 PM CDT SUN MAY 29 2016

NOTE: "FAIR" INDICATES FEW OR NO CLOUDS BELOW 12,000 FEET WITH NO
SIGNIFICANT WEATHER AND OR OBSTRUCTIONS TO VISIBILITY.


SDZ038>040-050-052>070-291800-
SOUTHEAST SOUTH DAKOTA

CITY           SKY/WX    TMP DP  RH WIND       PRES   REMARKS
BROOKINGS      SUNNY     70  57  63 W14       30.04S
CHAMBERLAIN    NOT AVBL
HURON          SUNNY     73  56  54 NW7       30.05R
MADISON        FAIR      68  59  73 W16       30.07R
MITCHELL       SUNNY     73  57  57 NW7       30.07S
SIOUX FALLS    MOSUNNY   73  59  61 W10       30.06R
WINNER         FAIR      74  53  48 E6        30.08F
YANKTON        MOSUNNY   72  61  68 W8        30.07R
$$

MNZ071-072-080-081-089-090-097-098-291800-
SOUTHWEST MINNESOTA

CITY           SKY/WX    TMP DP  RH WIND       PRES   REMARKS
FAIRMONT       MOSUNNY   73  55  53 W14G20    30.02S
JACKSON        MOSUNNY   73  55  53 W16G22    30.04S
LUVERNE        SUNNY     72  57  60 W10       30.06R
MARSHALL       SUNNY     73  56  54 W17       30.01R
MONTEVIDEO     MOSUNNY   75  61  60 NW9       30.01R
PIPESTONE      SUNNY     72  55  56 W13G20    30.05S
REDWOOD FALLS  MOSUNNY   74  59  59 W6G18     29.99S
TRACY          CLOUDY    74  59  61 W12G18    30.02S
WINDOM         MOSUNNY   72  55  56 W9        30.03R
WORTHINGTON    MOSUNNY   71  59  65 W16       30.05S
$$

IAZ001>003-012>014-020>022-031-032-NEZ013-014-SDZ071-291800-
NORTHWEST IOWA

CITY           SKY/WX    TMP DP  RH WIND       PRES   REMARKS
ESTHERVILLE    MOSUNNY   72  62  71 W16G26    30.04S
SIOUX CITY     SUNNY     78  59  51 W10       30.07S
SPENCER        MOSUNNY   72  60  66 W16G23    30.06S
STORM LAKE     SUNNY     73  57  56 W12G18    30.09R
$$

ABBREVIATIONS USED IN REMARKS
   TC - TEMPERATURE IN CELSIUS
  WCI - WIND CHILL INDEX
   HX - HEAT INDEX
  VSB - VISIBILITY





USA.gov is the U.S. government's official web portal to all federal, state and local government web resources and services.